レナード彗星

P/2021 L2 ( Leonard )

English version
Home page
Updated on January 20, 2022

---------------------------------------------------------------------

・ プロフィール

発見日 2021年6月8日
発見光度 20.3等
発見者 G. J. Leonard (Munt Lemmon Survey)

・ 写真集

・ 軌道要素

Epoch 2022 Jan. 21.0 TT = JDT 2459600.5
T 2021 July 24.48019 TT                                 Rudenko
q   1.9384083            (2000.0)            P               Q
n   0.12086296     Peri.   51.52574     +0.69307546     +0.62518394
a   4.0514198      Node   266.66103     -0.72084191     +0.59707593
e   0.5215484      Incl.   21.06860     -0.00577411     +0.50263842
P   8.15
From 135 observations 2021 May 11-Nov. 2, mean residual 0".5.

・ 光度変化

        m1 = 13.0 + 5 logΔ + 20.0 log r(t - 40)

---------------------------------------------------------------------

軌道要素はM.P.E.C. 2021-W31に掲載されたものです。
光度グラフはComet for Windowsで作成したものです。

---------------------------------------------------------------------

Copyright(C) Seiichi Yoshida (comet@aerith.net). All rights reserved.